一网星座-0700 (ONEWEB-0700)

导读

ONEWEB-0700是英国一网公司的低轨互联网卫星,属于OneWeb第一代星座卫星,2024年10月20日由SpaceX猎鹰九号火箭在美国范登堡太空军基地发射升空。本次发射是OneWeb第一代星座的收官批次,该星座建成后将为全球提供宽带互联网接入服务,卫星运行在近地轨道,单星重量约145千克,采用电推进方式,设计在轨寿命约5年。

基本信息
目录编号:
61606
目录名称:
ONEWEB-0700
国际标识:
2024-188N
轨道中心:
EARTH
卫星名称:
一网星座-0700
卫星全名:
一网星座-0700 (ONEWEB-0700)
卫星状态:
在轨 (已飞行602 天)
发射日期:
2024-10-20 UTC
国别 :
英国 (GB)
星等 :
--
轨道信息
数据来源 国际轨道数据 AOE轨道数据
星历时间 2026-06-14T11:54:33+0800
9小时前
查看轨道信息
2026-06-14T00:00:00+0800
21小时前
查看轨道信息
半长轴 7599.846km 7599.836km
偏心率 0.000193 0.0001984
轨道倾角 87.885° 87.885°
近地点辐角 103.654° 78.780°
升交点赤经 36.777° 36.875°
平近点角 256.480° 101.888°
近地点 1220.242km 1220.191km
远地点 1223.176km 1223.207km
周期 109.892分钟 109.892分钟
每日圈数 13.10375 13.103776
详细信息
卫星平台:
0700
平衡模式:
三轴稳定
覆盖范围:
全球
运营商:
一网卫星公司
运营商所在国:
英国
制造商(研发单位):
空客防务与航天公司
制造商所在国:
法国大都会
使用方式:
暂无
卫星简介
OneWeb 计划是一项全球卫星互联网项目,旨在通过发射低轨道卫星,为全球偏远和无法接入互联网的地区提供高速网络连接。OneWeb 的目标是打造一个由数百颗卫星组成的网络,帮助缩小全球数字鸿沟,推动教育、医疗和经济发展。
2D轨道图
3D轨道图
轨道高度分析图
轨道倾角分析图
轨道综合分析图
查看轨道综合分析图